[[{"header":{"parameterUnit":"m.s-1","parameterCategory":1,"la1":30.2991,"la2":30.254,"lo1":-89.0895,"lo2":-89.0444,"dy":0.0017,"dx":0.0017,"nx":28,"ny":28,"refTime":"2025-07-25T09:00:00:Z","depth":0,"parameterNumber":2,"parameterNumberName":"U-component_of_WINDS"},"data":[0,0,0,0,0,0,0,0,0,0,0,0,0,0,0,0,0,0,0,0,0,0,0,0,0,0,0,0,0,0,0,0,0,0,0,0,0,0,0,0,0,0,0,0,0,0,0,0,0,0,0,0,0,0,0,0,0,0,-1.937,-1.937,0,-1.9418,-1.9418,-1.9419,-1.9411,-1.9411,-1.941,-1.9409,-1.9457,-1.9459,-1.9461,0,0,0,0,0,0,0,0,0,0,0,0,0,-1.9272,-1.9274,-1.937,-1.937,-1.9371,-1.9418,-1.9418,-1.9419,-1.9412,-1.9411,-1.941,-1.9409,-1.9456,-1.9458,-1.9461,0,0,0,0,0,0,0,0,0,0,0,0,0,-1.9317,-1.9275,-1.937,-1.9373,-1.9374,-1.9417,-1.9418,-1.9419,-1.9412,-1.9411,-1.9409,-1.9408,-1.9455,-1.9458,-1.9461,-1.9504,0,0,-1.947,-1.9472,0,0,0,0,0,0,0,0,-1.9314,-1.932,-1.9372,-1.9373,-1.9374,-1.9407,-1.9401,-1.9448,-1.9412,-1.9397,-1.9409,-1.9408,-1.9441,-1.9445,-1.9457,-1.9506,-1.9508,-1.9471,-1.9473,-1.9474,-1.9475,0,0,0,0,0,0,0,-1.9311,-1.9318,-1.9389,-1.9373,-1.9374,-1.9372,-1.9377,-1.941,-1.9425,-1.9399,-1.9398,-1.9404,-1.9441,-1.9454,-1.9458,-1.9509,-1.9471,-1.9473,-1.9475,-1.9476,-1.9598,-1.9599,0,0,0,0,0,0,-1.9307,-1.9316,-1.9387,-1.939,-1.9341,-1.9375,-1.938,-1.9398,-1.9425,-1.9428,-1.9405,-1.9403,-1.9449,-1.9454,-1.946,-1.9512,-1.9474,-1.9477,-1.9478,-1.9596,-1.9598,-1.96,0,0,0,0,0,0,-1.9305,-1.9314,-1.9385,-1.9353,-1.9362,-1.9378,-1.9397,-1.9399,-1.9412,-1.943,-1.9433,-1.9415,-1.9449,-1.9455,-1.9494,-1.9514,-1.9478,-1.9481,-1.9595,-1.9597,-1.9599,-1.9618,0,0,0,0,0,0,-1.9302,-1.9313,-1.9329,-1.9353,-1.9364,-1.9418,-1.9399,-1.9401,-1.9417,-1.9416,-1.944,-1.9443,-1.9448,-1.9489,-1.9497,-1.9518,-1.9483,-1.9593,-1.9596,-1.9598,-1.9616,-1.9621,-1.9625,0,0,0,0,0,-1.9299,-1.9332,-1.933,-1.9339,-1.9384,-1.942,-1.9425,-1.9431,-1.9419,-1.9436,-1.9448,-1.9442,-1.9511,-1.9493,-1.9501,-1.9524,-1.9592,-1.9595,-1.9598,-1.9614,-1.962,-1.9625,0,0,0,0,0,0,-1.931,-1.9335,-1.9333,-1.9376,-1.9396,-1.9418,-1.9439,-1.9437,-1.9461,-1.9458,-1.9464,-1.947,-1.9509,-1.952,-1.95,-1.9567,-1.9549,-1.9554,-1.9558,-1.9564,-1.9569,-1.9565,-1.9486,0,0,0,0,0,-1.9317,-1.9343,-1.9365,-1.94,-1.941,-1.9423,-1.9439,-1.9442,-1.9462,-1.9471,-1.9485,-1.9505,-1.9532,-1.9549,-1.9574,-1.9617,-1.9623,-1.9637,-1.9642,-1.9645,-1.9649,-1.9674,-1.9681,-1.961,-1.961,-1.961,0,0,-1.9332,-1.935,-1.9366,-1.9402,-1.9418,-1.9446,-1.943,-1.9459,-1.948,-1.9475,-1.9512,-1.9524,-1.9547,-1.9588,-1.9607,-1.9599,-1.967,-1.9649,-1.9652,-1.9654,-1.9678,-1.9685,-1.9691,-1.9612,-1.9612,-1.9611,0,0,-1.9374,-1.939,-1.9421,-1.9438,-1.9462,-1.9471,-1.9479,-1.9502,-1.951,-1.9548,-1.9545,-1.9569,-1.9614,-1.9631,-1.9645,-1.9696,-1.9692,-1.9704,-1.9727,-1.9752,-1.9757,-1.9762,-1.9781,-1.9787,-1.9708,-1.9708,-1.9708,0,-1.939,-1.9431,-1.9437,-1.9468,-1.9484,-1.9482,-1.9514,-1.953,-1.9561,-1.9573,-1.9563,-1.962,-1.9635,-1.9681,-1.9694,-1.9705,-1.9715,-1.9701,-1.9756,-1.9761,-1.9766,-1.9784,-1.979,-1.9709,-1.9709,-1.9709,-1.9709,0,-1.9449,-1.9478,-1.9501,-1.9532,-1.9551,-1.9582,-1.9594,-1.9612,-1.9614,-1.9624,-1.9663,-1.9682,-1.9711,-1.9722,-1.9724,-1.9769,-1.9763,-1.9755,-1.9737,-1.9774,-1.9791,-1.9797,-1.9711,-1.9711,-1.971,-1.971,0,0,-1.9498,-1.9534,-1.9542,-1.9557,-1.9584,-1.9607,-1.9638,-1.9668,-1.9684,-1.9706,-1.9733,-1.9771,-1.9764,-1.9781,-1.9784,-1.9806,-1.9846,-1.9795,-1.9796,-1.9804,-1.9897,-1.9903,-1.9911,-1.9843,-1.9845,-1.9846,-1.9896,0,-1.9543,-1.9599,-1.9606,-1.9656,-1.9683,-1.9682,-1.9709,-1.9729,-1.974,-1.9765,-1.9776,-1.9804,-1.9792,-1.9802,-1.9823,-1.9836,-1.9864,-1.9833,-1.9868,-1.987,-1.9863,-1.992,-1.9926,-1.9972,-1.9902,-1.9903,-1.9904,0,-1.9603,-1.9627,-1.968,-1.9705,-1.9717,-1.9741,-1.9769,-1.9793,-1.9816,-1.9822,-1.9841,-1.9843,-1.9876,-1.9857,-1.9903,-1.9881,-1.9896,-1.9905,-1.9907,-1.991,-1.9889,-1.9925,-1.9987,-1.9994,-1.9914,-1.9913,-1.9913,0,-1.9634,-1.968,-1.9718,-1.973,-1.976,-1.9778,-1.9791,-1.9813,-1.9831,-1.9855,-1.9867,-1.9895,-1.991,-1.9932,-1.9941,-1.9927,-1.9987,-1.9968,-1.9993,-1.9993,-2.0005,-2.0004,-2.0071,-2.0015,-2.0015,-2.0015,-2.0015,0,-1.9683,-1.9715,-1.9732,-1.9755,-1.9792,-1.98,-1.9836,-1.9849,-1.9869,-1.9894,-1.9895,-1.9919,-1.993,-1.9956,-1.9963,-2.0,-2.0007,-2.0013,-2.0015,-2.0013,-2.0013,-2.0023,-2.002,-2.0017,-2.0016,-2.0016,-2.0016,0,-1.9724,-1.9736,-1.9777,-1.9803,-1.981,-1.9836,-1.9858,-1.9881,-1.9891,-1.9924,-1.9932,-1.9949,-1.998,-1.9991,-2.0028,-2.0034,-2.0077,-2.0076,-2.0069,-2.007,-2.0094,-2.0091,-2.0169,-2.018,-2.0117,-2.0118,-2.0118,0,-1.9755,-1.978,-1.9808,-1.9826,-1.984,-1.9868,-1.9886,-1.9896,-1.9915,-1.9944,-1.9964,-1.9994,-2.002,-2.0069,-2.0084,-2.0113,-2.0113,-2.0138,-2.0117,-2.0115,-2.0114,-2.0112,-2.0115,-2.0142,-2.0143,-2.0143,-2.0144,0,-1.9808,-1.9813,-1.984,-1.9869,-1.9891,-1.9914,-1.9937,-1.9951,-1.9965,-1.9986,-2.0018,-2.0038,-2.0076,-2.0107,-2.0137,-2.0151,-2.015,-2.015,-2.0158,-2.0156,-2.0152,-2.0155,-2.008,-2.0148,-2.0148,-2.0147,-2.0147,-2.0147,-1.9845,-1.9868,-1.9892,-1.9922,-1.994,-1.9961,-1.9984,-1.9998,-2.0025,-2.0058,-2.0062,-2.0096,-2.012,-2.016,-2.0175,-2.0202,-2.0196,-2.0206,-2.0209,-2.0211,-2.0213,-2.0147,-2.0208,-2.0208,-2.0208,-2.0207,-2.0207,0,-1.9899,-1.9915,-1.9942,-1.9974,-1.9998,-1.9996,-2.0021,-2.0041,-2.0071,-2.0093,-2.0119,-2.0156,-2.0186,-2.0205,-2.0235,-2.0253,-2.0254,-2.0261,-2.026,-2.0263,-2.0217,-2.0208,-2.026,-2.026,-2.026,-2.026,-2.026,-2.026,-1.993,-1.9968,-1.9977,-2.0024,-2.004,-2.0074,-2.0089,-2.0109,-2.0127,-2.0168,-2.0194,-2.0206,-2.0227,-2.0259,-2.0287,-2.0291,-2.0303,-2.0311,-2.0315,-2.0272,-2.0266,-2.0261,-2.0252,-2.0313,-2.0313,-2.0359,-2.0359,-2.0359]},{"header":{"parameterUnit":"m.s-1","parameterCategory":1,"la1":30.2991,"la2":30.254,"lo1":-89.0895,"lo2":-89.0444,"dy":0.0017,"dx":0.0017,"nx":28,"ny":28,"refTime":"2025-07-25T09:00:00:Z","depth":0,"parameterNumber":3,"parameterNumberName":"V-component_of_WINDS"},"data":[0,0,0,0,0,0,0,0,0,0,0,0,0,0,0,0,0,0,0,0,0,0,0,0,0,0,0,0,0,0,0,0,0,0,0,0,0,0,0,0,0,0,0,0,0,0,0,0,0,0,0,0,0,0,0,0,0,0,4.8325,4.8325,0,4.8282,4.8282,4.8281,4.8226,4.8225,4.8224,4.8223,4.8177,4.8176,4.8176,0,0,0,0,0,0,0,0,0,0,0,0,0,4.8359,4.8359,4.8325,4.8325,4.8324,4.8282,4.8282,4.8281,4.8226,4.8225,4.8224,4.8223,4.8177,4.8176,4.8176,0,0,0,0,0,0,0,0,0,0,0,0,0,4.8333,4.8359,4.8325,4.8292,4.8288,4.8282,4.8282,4.8281,4.8226,4.8225,4.8223,4.8222,4.8177,4.8177,4.8176,4.8199,0,0,4.8174,4.8174,0,0,0,0,0,0,0,0,4.8335,4.8332,4.8297,4.8294,4.829,4.8258,4.8277,4.8253,4.8226,4.825,4.8223,4.8222,4.8205,4.8202,4.8197,4.8197,4.8195,4.8174,4.8174,4.8173,4.8173,0,0,0,0,0,0,0,4.8337,4.8334,4.8308,4.8297,4.8293,4.8279,4.8273,4.8272,4.8235,4.8248,4.8243,4.8239,4.8203,4.8197,4.8195,4.8194,4.8174,4.8173,4.8173,4.8173,4.8212,4.8213,0,0,0,0,0,0,4.8344,4.8335,4.8309,4.8307,4.831,4.8279,4.8273,4.827,4.8235,4.8229,4.824,4.8237,4.8199,4.8196,4.8193,4.8218,4.8173,4.8173,4.8172,4.8211,4.8212,4.8214,0,0,0,0,0,0,4.8345,4.8342,4.8311,4.832,4.8315,4.828,4.8276,4.827,4.8264,4.823,4.8223,4.8242,4.8198,4.8194,4.8198,4.8216,4.8173,4.8172,4.8209,4.8211,4.8213,4.8268,0,0,0,0,0,0,4.8346,4.8343,4.8351,4.8321,4.8315,4.8317,4.8277,4.827,4.8263,4.8258,4.8229,4.8223,4.8196,4.8199,4.8198,4.8214,4.8171,4.8207,4.821,4.8212,4.8265,4.8272,4.8278,0,0,0,0,0,4.8347,4.8368,4.8352,4.8349,4.8325,4.8318,4.8315,4.8285,4.8265,4.8273,4.8251,4.8224,4.8215,4.82,4.8198,4.8214,4.8206,4.8209,4.8212,4.8262,4.827,4.8278,0,0,0,0,0,0,4.8399,4.8363,4.8345,4.8356,4.8341,4.8309,4.8318,4.8295,4.8285,4.828,4.8242,4.8236,4.8245,4.823,4.8215,4.8235,4.8206,4.8209,4.8245,4.8253,4.826,4.8262,4.8171,0,0,0,0,0,4.8413,4.8411,4.8379,4.8392,4.8385,4.8354,4.835,4.8328,4.831,4.8303,4.8282,4.8265,4.8259,4.8255,4.8247,4.8263,4.8256,4.8273,4.828,4.8286,4.8288,4.8296,4.8304,4.8224,4.8224,4.8224,0,0,4.8439,4.8419,4.842,4.8402,4.8388,4.8387,4.8348,4.8348,4.8347,4.8303,4.8306,4.829,4.8269,4.828,4.8283,4.8267,4.8309,4.829,4.8295,4.8294,4.83,4.8308,4.8314,4.8226,4.8226,4.8226,0,0,4.8486,4.8471,4.8481,4.8468,4.8447,4.8426,4.8429,4.8401,4.8389,4.8391,4.8359,4.8357,4.8346,4.8333,4.8325,4.837,4.8345,4.8369,4.8404,4.8412,4.8418,4.8424,4.844,4.8446,4.8372,4.8372,4.8372,0,4.8521,4.8519,4.8488,4.8491,4.8484,4.8446,4.8455,4.8444,4.8422,4.8418,4.8401,4.8388,4.8371,4.8378,4.839,4.8385,4.8386,4.8371,4.842,4.8425,4.843,4.8445,4.8451,4.8375,4.8375,4.8374,4.8374,0,4.8563,4.8563,4.8573,4.8553,4.8548,4.8554,4.8524,4.8522,4.8502,4.8483,4.8486,4.8466,4.8453,4.8454,4.8433,4.8458,4.8449,4.8427,4.8396,4.8441,4.8454,4.846,4.8379,4.8378,4.8377,4.8376,0,0,4.8641,4.8606,4.861,4.8601,4.8577,4.8575,4.858,4.8569,4.8569,4.8555,4.8558,4.8551,4.8531,4.8522,4.85,4.8507,4.8545,4.8484,4.8483,4.8496,4.8572,4.8589,4.8596,4.8529,4.853,4.8531,4.8574,0,4.8683,4.869,4.8663,4.8676,4.8675,4.864,4.8644,4.863,4.8613,4.8609,4.859,4.8586,4.856,4.8554,4.856,4.8539,4.856,4.8536,4.8531,4.8531,4.8537,4.8603,4.862,4.8662,4.8579,4.858,4.8581,0,4.8733,4.8724,4.8738,4.8714,4.8712,4.8717,4.8705,4.8702,4.8686,4.8673,4.8664,4.8639,4.8643,4.8615,4.8619,4.8604,4.86,4.859,4.8591,4.8589,4.8558,4.8602,4.8675,4.8681,4.8589,4.8588,4.8587,0,4.8788,4.8779,4.8786,4.878,4.8752,4.8756,4.8745,4.8727,4.8723,4.8713,4.8709,4.87,4.8694,4.8688,4.8661,4.8643,4.8669,4.8638,4.8658,4.8658,4.8663,4.8663,4.8736,4.8663,4.8663,4.8662,4.8662,0,4.8838,4.8848,4.8811,4.8815,4.8825,4.8795,4.8806,4.8791,4.8776,4.8777,4.8745,4.8747,4.8712,4.871,4.8689,4.8696,4.8694,4.8683,4.8678,4.8686,4.8687,4.8682,4.8678,4.8664,4.8664,4.8663,4.8663,0,4.89,4.8876,4.8882,4.8856,4.885,4.8858,4.8836,4.8839,4.8821,4.8823,4.8821,4.8793,4.8789,4.8762,4.8751,4.8738,4.8752,4.8741,4.8758,4.8754,4.8775,4.8773,4.8846,4.8855,4.8777,4.8777,4.8778,0,4.8933,4.894,4.8916,4.8915,4.8905,4.8904,4.8899,4.887,4.8867,4.885,4.8855,4.8849,4.8842,4.8838,4.8816,4.8808,4.8796,4.8822,4.8794,4.8803,4.8796,4.8796,4.8796,4.8828,4.8829,4.883,4.883,0,4.8995,4.8983,4.8978,4.897,4.8966,4.8958,4.8948,4.8949,4.8917,4.8915,4.8911,4.8906,4.8896,4.8891,4.888,4.8867,4.8844,4.884,4.8844,4.8851,4.8861,4.8856,4.8773,4.8838,4.8837,4.8836,4.8836,4.8836,4.9043,4.9048,4.9032,4.9028,4.9018,4.901,4.9012,4.8995,4.8991,4.8982,4.8965,4.8964,4.8948,4.8931,4.8921,4.892,4.8906,4.8911,4.8913,4.8915,4.8919,4.8862,4.8918,4.8917,4.8917,4.8917,4.8917,0,4.9103,4.9091,4.9088,4.9076,4.9073,4.9053,4.9041,4.904,4.9039,4.9027,4.9022,4.9018,4.9013,4.8992,4.8984,4.8987,4.8976,4.8986,4.8985,4.8983,4.8932,4.8929,4.8995,4.8995,4.8995,4.8995,4.8995,4.8995,4.9133,4.9141,4.9127,4.913,4.9118,4.9117,4.9112,4.9105,4.9095,4.9093,4.9088,4.9075,4.9059,4.9051,4.9045,4.9039,4.9038,4.9052,4.9042,4.8994,4.8987,4.8979,4.8977,4.9052,4.9052,4.9093,4.9093,4.9094]}]]